Tracking 22287 objects as of 27-Jan-2021
HD Live streaming from Space Station
objects crossing your sky now

SL-8 DEB

Track SL-8 DEB now!
10-day predictions


NORAD ID: 16867
Int'l Code: 1986-052E
Perigee: 639.4 km
Apogee: 662.1 km
Inclination: 74.0 °
Period: 97.6 minutes
Semi major axis: 7021 km
RCS: 0.0117 m2 (small)
Launch date: July 16, 1986
Source: Commonwealth of Independent States (former USSR) (CIS)
Launch site: PLESETSK MISSILE AND SPACE COMPLEX (PKMTR)

Note: This is SATELLITE DEBRIS
aabbcc
Your satellite tracking list
Your tracking list is empty




NASA's NSSDC Master Catalog

Two Line Element Set (TLE):
1 16867U 86052E   21026.84038691  .00000778  00000-0  11923-3 0  9990
2 16867  74.0220 181.4735 0016194 220.4134 139.5838 14.75477418836485
Source of the keplerian elements: AFSPC